Weather History for Nyiregyhaza, Hungary

Change the Weather History Date:

Monday, April 21, 2014

  Actual Average Record
Temperature  
Mean Temperature 60 °F -  
Max Temperature 72 °F - - ()
Min Temperature 49 °F - - ()
Degree Days  
Heating Degree Days 4    
Growing Degree Days 10 (Base 50)    
Moisture  
Dew Point 47 °F    
Average Humidity 58    
Maximum Humidity 97    
Minimum Humidity 24    
Precipitation  
Precipitation 0.00 in - - ()
Sea Level Pressure  
Sea Level Pressure 29.87 in    
Wind  
Wind Speed 5 mph ()    
Max Wind Speed 7 mph    
Max Gust Speed -    
T = Trace of Precipitation, MM = Missing Value Source: Averaged Metar Reports

Daily Weather History Graph

Daily Weather History Graph

Search for Another Location

Airport:

Trip Planner

Search our weather history database for the weather conditions in past years. The results will help you decide how hot, cold, wet, or windy it might be!

Date:

Astronomy

Apr. 21, 2014 Rise Set
Actual Time 5:33 AM CEST 7:31 PM CEST
Civil Twilight 4:59 AM CEST 8:05 PM CEST
Nautical Twilight 4:18 AM CEST 8:46 PM CEST
Astronomical Twilight 3:33 AM CEST 9:32 PM CEST
Moon 12:54 AM CEST (4/21) 10:32 AM CEST (4/21)
Length of Visible Light 15h 05m
Length of Day
13h 58m
Waning Gibbous, 60% of the Moon is Illuminated
Apr 21
Waning Gibbous
Apr 22
Last Quarter
Apr 29
New
May 7
First Quarter
May 14
Full

Hourly Weather History & Observations

Time (CEST) Temp. Dew Point Humidity Pressure Visibility Wind Dir Wind Speed Gust Speed Precip Events Conditions
12:00 AM 52 °F 44 °F 68% 29.91 in - SE 4.5 mph - -  
1:00 AM 51 °F 46 °F 75% 29.92 in - SE 6.7 mph - -  
2:00 AM 50 °F 48 °F 89% 29.92 in - SSE 4.5 mph - -  
3:00 AM 49 °F 48 °F 97% 29.91 in - ESE 4.5 mph - -  
4:00 AM 50 °F 49 °F 94% 29.91 in - East 4.5 mph - -  
5:00 AM 50 °F 49 °F 93% 29.90 in - East 6.7 mph - -  
6:00 AM 50 °F 48 °F 90% 29.91 in - East 6.7 mph - -  
7:00 AM 50 °F 47 °F 88% 29.91 in - ESE 4.5 mph - -  
8:00 AM 54 °F 49 °F 78% 29.91 in - East 6.7 mph - -  
9:00 AM 59 °F 52 °F 72% 29.91 in - East 4.5 mph - -  
10:00 AM 63 °F 51 °F 57% 29.91 in - East 6.7 mph - -  
11:00 AM 64 °F 47 °F 44% 29.90 in - SE 4.5 mph - -  
12:00 PM 68 °F 47 °F 36% 29.88 in - SSE 2.2 mph - -  
1:00 PM 66 °F 47 °F 39% 29.87 in - ESE 6.7 mph - -  
2:00 PM 69 °F 46 °F 33% 29.86 in - ESE 4.5 mph - -  
3:00 PM 72 °F 43 °F 25% 29.84 in - SSW 4.5 mph - -  
4:00 PM 70 °F 44 °F 28% 29.83 in - SSE 4.5 mph - -  
5:00 PM 70 °F 43 °F 26% 29.82 in - East 4.5 mph - -  
6:00 PM 70 °F 41 °F 24% 29.82 in - Calm Calm - -  
7:00 PM 67 °F 44 °F 31% 29.81 in - NE 6.7 mph - -  
8:00 PM 62 °F 45 °F 43% 29.82 in - East 6.7 mph - -  
9:00 PM 61 °F 46 °F 48% 29.83 in - North 2.2 mph - -  
10:00 PM 57 °F 46 °F 58% 29.84 in - NNE 6.7 mph - -  
11:00 PM 57 °F 48 °F 65% 29.83 in - NE 6.7 mph - -